Gilead, NE

6:55 AM CDT on August 27, 2016 (GMT -0500)
Hebron Municipal

Weather History for KHJH - November, 2013

Change the Weather History Date:

Monday, November 25, 2013

  Actual Average Record
Temperature  
Mean Temperature 36 °F -  
Max Temperature 47 °F 46 °F 72 °F (1990)
Min Temperature 24 °F 24 °F 5 °F (1993)
Degree Days  
Heating Degree Days 30    
Moisture  
Dew Point 21 °F    
Average Humidity 62    
Maximum Humidity 80    
Minimum Humidity 34    
Precipitation  
Precipitation 0.00 in - - ()
Sea Level Pressure  
Sea Level Pressure 30.18 in    
Wind  
Wind Speed 8 mph (West)    
Max Wind Speed 16 mph    
Max Gust Speed 21 mph    
Visibility 10 miles    
Events      
Averages and records for this station are not official NWS values.
T = Trace of Precipitation, MM = Missing Value Source: NWS Daily Summary

Daily Weather History Graph

Daily Weather History Graph

Search for Another Location

Airport or City:

Trip Planner

Search our weather history database for the weather conditions in past years. The results will help you decide how hot, cold, wet, or windy it might be!

Date:

Astronomy

Nov. 25, 2013 Rise Set
Actual Time 7:27 AM CST 5:07 PM CST
Civil Twilight 6:57 AM CST 5:36 PM CST
Nautical Twilight 6:24 AM CST 6:10 PM CST
Astronomical Twilight 5:51 AM CST 6:42 PM CST
Moon No Moon Rise 12:44 PM CST (11/25)
Length of Visible Light 10h 39m
Length of Day
9h 39m
Waning Gibbous, 51% of the Moon is Illuminated
Nov 25
Waning Gibbous
Nov 25
Last Quarter
Dec 2
New
Dec 9
First Quarter
Dec 17
Full

Hourly Weather History & Observations

Time (CST) Temp. Windchill Dew Point Humidity Pressure Visibility Wind Dir Wind Speed Gust Speed Precip Events Conditions
12:15 AM 28.8 °F 20.2 °F 11.1 °F 48% 30.20 in 10.0 mi SSW 9.2 mph - N/A   Overcast
12:35 AM 28.8 °F 20.9 °F 12.2 °F 50% 30.19 in 10.0 mi SSW 8.1 mph - N/A   Overcast
12:55 AM 28.8 °F 18.4 °F 13.1 °F 52% 30.19 in 10.0 mi SSW 12.7 mph 16.1 mph N/A   Overcast
1:15 AM 28.4 °F 19.7 °F 14.0 °F 55% 30.18 in 10.0 mi SSW 9.2 mph - N/A   Overcast
1:35 AM 28.2 °F 18.9 °F 15.1 °F 58% 30.18 in 10.0 mi SSW 10.4 mph - N/A   Overcast
1:55 AM 28.9 °F 20.4 °F 16.2 °F 59% 30.17 in 10.0 mi South 9.2 mph - N/A   Overcast
2:15 AM 29.3 °F 19.1 °F 17.4 °F 61% 30.17 in 10.0 mi SSW 12.7 mph 17.3 mph N/A   Overcast
2:35 AM 29.7 °F 22.0 °F 18.0 °F 62% 30.17 in 10.0 mi SSW 8.1 mph - N/A   Overcast
2:55 AM 29.7 °F 21.3 °F 18.5 °F 63% 30.17 in 10.0 mi SSW 9.2 mph - N/A   Overcast
3:15 AM 29.7 °F 21.3 °F 18.9 °F 64% 30.16 in 10.0 mi SSW 9.2 mph - N/A   Overcast
3:35 AM 29.7 °F 23.7 °F 19.4 °F 66% 30.16 in 10.0 mi SSW 5.8 mph - N/A   Overcast
3:55 AM 29.7 °F 22.0 °F 19.4 °F 66% 30.16 in 10.0 mi SSW 8.1 mph - N/A   Overcast
4:15 AM 29.7 °F 21.3 °F 19.9 °F 67% 30.16 in 10.0 mi SSW 9.2 mph - N/A   Overcast
4:35 AM 29.8 °F 20.9 °F 20.3 °F 68% 30.15 in 10.0 mi SSW 10.4 mph - N/A   Overcast
4:55 AM 29.8 °F 23.0 °F 20.3 °F 68% 30.15 in 10.0 mi SSW 6.9 mph - N/A   Overcast
5:15 AM 29.3 °F 20.2 °F 20.3 °F 69% 30.14 in 10.0 mi SSW 10.4 mph - N/A   Overcast
5:35 AM 29.3 °F 20.8 °F 20.7 °F 70% 30.14 in 10.0 mi SSW 9.2 mph - N/A   Overcast
5:55 AM 28.9 °F 22.8 °F 20.5 °F 71% 30.14 in 10.0 mi SSW 5.8 mph - N/A   Overcast
6:15 AM 29.5 °F 22.5 °F 21.2 °F 71% 30.13 in 10.0 mi SSW 6.9 mph - N/A   Overcast
6:35 AM 29.8 °F 24.9 °F 21.2 °F 70% 30.14 in 10.0 mi SW 4.6 mph - N/A   Overcast
6:55 AM 30.0 °F 23.2 °F 21.2 °F 70% 30.14 in 10.0 mi SSW 6.9 mph - N/A   Overcast
7:15 AM 30.0 °F 24.1 °F 21.6 °F 71% 30.15 in 10.0 mi SW 5.8 mph - N/A   Overcast
7:35 AM 29.7 °F 22.8 °F 21.7 °F 72% 30.15 in 10.0 mi SW 6.9 mph - N/A   Overcast
7:55 AM 29.1 °F 23.0 °F 21.7 °F 74% 30.16 in 10.0 mi SW 5.8 mph - N/A   Overcast
8:15 AM 28.9 °F 23.9 °F 21.9 °F 75% 30.17 in 10.0 mi WSW 4.6 mph - N/A   Mostly Cloudy
8:35 AM 28.9 °F 23.9 °F 21.9 °F 75% 30.17 in 10.0 mi WSW 4.6 mph - N/A   Scattered Clouds
8:55 AM 30.4 °F 23.6 °F 22.6 °F 73% 30.18 in 10.0 mi WSW 6.9 mph - N/A   Scattered Clouds
9:15 AM 31.5 °F 23.5 °F 22.8 °F 70% 30.19 in 10.0 mi WSW 9.2 mph - N/A   Scattered Clouds
9:35 AM 32.0 °F 23.6 °F 23.4 °F 70% 30.19 in 10.0 mi West 10.4 mph - N/A   Mostly Cloudy
9:55 AM 32.5 °F 23.2 °F 23.5 °F 69% 30.19 in 10.0 mi West 12.7 mph - N/A   Mostly Cloudy
10:15 AM 32.2 °F 23.2 °F 23.7 °F 71% 30.19 in 10.0 mi West 11.5 mph 18.4 mph N/A   Mostly Cloudy
10:35 AM 33.1 °F 24.4 °F 24.3 °F 70% 30.19 in 10.0 mi West 11.5 mph - N/A   Overcast
10:55 AM 32.7 °F 23.9 °F 24.6 °F 72% 30.19 in 10.0 mi West 11.5 mph 16.1 mph N/A   Scattered Clouds
11:15 AM 35.1 °F 26.9 °F 25.3 °F 68% 30.18 in 10.0 mi West 11.5 mph 16.1 mph N/A   Mostly Cloudy
11:35 AM 35.2 °F 28.1 °F 25.7 °F 68% 30.17 in 10.0 mi West 9.2 mph - N/A   Overcast
11:55 AM 36.0 °F 29.6 °F 26.2 °F 68% 30.17 in 10.0 mi West 8.1 mph - N/A   Overcast
12:15 PM 37.0 °F 31.0 °F 26.4 °F 65% 30.17 in 10.0 mi WNW 8.1 mph - N/A   Overcast
12:35 PM 39.9 °F 33.4 °F 27.3 °F 61% 30.17 in 10.0 mi NW 10.4 mph - N/A   Mostly Cloudy
12:55 PM 40.3 °F 34.4 °F 26.6 °F 58% 30.16 in 10.0 mi WNW 9.2 mph - N/A   Overcast
1:15 PM 41.0 °F 35.2 °F 26.8 °F 57% 30.15 in 10.0 mi WNW 9.2 mph - N/A   Overcast
1:35 PM 40.8 °F 35.0 °F 26.6 °F 57% 30.15 in 10.0 mi NW 9.2 mph - N/A   Scattered Clouds
1:55 PM 39.6 °F 34.7 °F 26.6 °F 60% 30.15 in 10.0 mi WNW 6.9 mph - N/A   Scattered Clouds
2:15 PM 42.8 °F 38.0 °F 27.1 °F 54% 30.14 in 10.0 mi WNW 8.1 mph - N/A   Clear
2:35 PM 44.6 °F 40.2 °F 26.4 °F 49% 30.13 in 10.0 mi North 8.1 mph - N/A   Clear
2:55 PM 44.6 °F 42.2 °F 26.6 °F 49% 30.13 in 10.0 mi NW 4.6 mph - N/A   Clear
3:15 PM 45.9 °F 42.9 °F 26.4 °F 47% 30.13 in 10.0 mi NW 5.8 mph - N/A   Clear
3:35 PM 46.8 °F - 25.7 °F 44% 30.14 in 10.0 mi NNW 5.8 mph - N/A   Clear
3:55 PM 47.5 °F - 20.1 °F 34% 30.14 in 10.0 mi North 16.1 mph 20.7 mph N/A   Clear
4:15 PM 46.8 °F - 21.0 °F 36% 30.15 in 10.0 mi North 12.7 mph - N/A   Clear
4:35 PM 45.7 °F 42.0 °F 21.7 °F 39% 30.15 in 10.0 mi North 6.9 mph - N/A   Scattered Clouds
4:55 PM 44.6 °F 42.2 °F 22.1 °F 41% 30.16 in 10.0 mi North 4.6 mph - N/A   Scattered Clouds
5:15 PM 43.2 °F 41.5 °F 21.2 °F 42% 30.16 in 10.0 mi North 3.5 mph - N/A   Clear
5:35 PM 41.9 °F 40.0 °F 21.0 °F 43% 30.17 in 10.0 mi NNW 3.5 mph - N/A   Clear
5:55 PM 40.1 °F - 21.2 °F 47% 30.17 in 10.0 mi Calm Calm - N/A   Clear
6:15 PM 37.0 °F 34.5 °F 21.2 °F 53% 30.18 in 10.0 mi NW 3.5 mph - N/A   Clear
6:35 PM 36.5 °F 32.7 °F 21.6 °F 55% 30.18 in 10.0 mi NW 4.6 mph - N/A   Clear
6:55 PM 35.8 °F 33.0 °F 21.4 °F 56% 30.18 in 10.0 mi NW 3.5 mph - N/A   Clear
7:15 PM 33.8 °F 30.8 °F 21.2 °F 60% 30.19 in 10.0 mi NW 3.5 mph - N/A   Clear
7:35 PM 33.8 °F 29.6 °F 21.0 °F 60% 30.20 in 10.0 mi NW 4.6 mph - N/A   Clear
7:55 PM 33.4 °F 30.4 °F 20.8 °F 60% 30.21 in 10.0 mi NW 3.5 mph - N/A   Clear
8:15 PM 30.9 °F - 20.3 °F 65% 30.21 in 10.0 mi Calm Calm - N/A   Clear
8:35 PM 28.6 °F 24.8 °F 19.8 °F 70% 30.22 in 10.0 mi West 3.5 mph - N/A   Clear
8:55 PM 29.7 °F - 20.3 °F 68% 30.22 in 10.0 mi Calm Calm - N/A   Clear
9:15 PM 31.1 °F 26.4 °F 20.8 °F 66% 30.22 in 10.0 mi WNW 4.6 mph - N/A   Clear
9:35 PM 29.5 °F 25.9 °F 20.3 °F 69% 30.23 in 10.0 mi West 3.5 mph - N/A   Clear
9:55 PM 24.3 °F - 18.9 °F 80% 30.23 in 10.0 mi Calm Calm - N/A   Clear
10:15 PM 26.4 °F - 19.8 °F 76% 30.24 in 10.0 mi Calm Calm - N/A   Clear
10:35 PM 25.7 °F - 19.2 °F 76% 30.24 in 10.0 mi Calm Calm - N/A   Clear
10:55 PM 25.7 °F 21.5 °F 19.4 °F 77% 30.24 in 10.0 mi West 3.5 mph - N/A   Clear
11:15 PM 25.3 °F - 19.0 °F 77% 30.24 in 10.0 mi Calm Calm - N/A   Clear
11:35 PM 26.2 °F 22.1 °F 19.4 °F 75% 30.24 in 10.0 mi West 3.5 mph - N/A   Clear
11:55 PM 25.2 °F 20.9 °F 18.9 °F 77% 30.24 in 10.0 mi West 3.5 mph - N/A   Clear